Location: Newark
(34.6283°N, 36.0776°E)
Time: 11:36:10
(UTC+00:00)

S-56A Canister/Altair - Pass Details

Date: 25 October 2019
Orbit: 634 x 2498 km, 38.9° (Epoch: 20 November)

Event Time Altitude Azimuth Distance (km) Brightness Sun altitude
Rises 01:31:46 0° 283° (WNW) 3,445 - -28.9°
Reaches altitude 10° 01:33:56 10° 286° (WNW) 2,672 - -28.5°
Exits shadow 01:38:34 51° 312° (NW) 1,417 8.5 -27.5°
Maximum altitude 01:40:22 67° 9° (N) 1,331 8.6 -27.1°
Drops below altitude 10° 01:50:20 10° 92° (E) 4,030 12.2 -25.1°
Sets 01:54:21 0° 95° (E) 5,315 13.2 -24.3°
